Location: Rancho Santa Fe Post Office
(33.0184°N, 117.2026°W)
Time: 02:19:37
(UTC+00:00)

SL-16 R/B - Pass Details

Date: 10 September 2024
Orbit: 842 x 845 km, 71.0° (Epoch: 06 October)

Event Time Altitude Azimuth Distance (km) Brightness Sun altitude
Rises 12:28:41 0° 322° (NW) 3,406 5.1 -13.4°
Reaches altitude 10° 12:31:39 10° 308° (NW) 2,467 4.3 -12.8°
Maximum altitude 12:35:51 22° 259° (W) 1,767 3.2 -11.9°
Drops below altitude 10° 12:40:04 10° 211° (SSW) 2,456 4.2 -11.1°
Sets 12:43:01 0° 196° (SSW) 3,386 5.1 -10.5°
